TimeCST,TemperatureF,Dew PointF,Humidity,Sea Level PressureIn,VisibilityMPH,Wind Direction,Wind SpeedMPH,Gust SpeedMPH,PrecipitationIn,Events,Conditions,WindDirDegrees,DateUTC
12:53 AM,66.9,64.9,93,29.85,10.0,South,13.8,-,N/A,,Scattered Clouds,170,2012-12-09 06:53:00
1:53 AM,66.0,64.0,93,29.84,10.0,South,9.2,-,N/A,,Clear,170,2012-12-09 07:53:00
2:23 AM,66.2,64.4,94,29.85,10.0,South,5.8,-,N/A,,Partly Cloudy,180,2012-12-09 08:23:00
2:38 AM,66.2,64.4,94,29.86,10.0,South,6.9,-,N/A,,Mostly Cloudy,180,2012-12-09 08:38:00
2:53 AM,66.0,64.9,96,29.85,10.0,South,5.8,-,N/A,,Overcast,170,2012-12-09 08:53:00
3:23 AM,66.2,64.4,94,29.85,10.0,South,4.6,-,N/A,,Overcast,170,2012-12-09 09:23:00
3:53 AM,64.9,64.0,97,29.85,7.0,SSE,5.8,-,N/A,,Overcast,150,2012-12-09 09:53:00
4:27 AM,64.4,64.4,100,29.85,7.0,SSE,5.8,-,N/A,,Mostly Cloudy,150,2012-12-09 10:27:00
4:46 AM,64.4,64.4,100,29.85,6.0,SSE,4.6,-,N/A,,Overcast,160,2012-12-09 10:46:00
4:53 AM,64.9,64.0,97,29.85,6.0,SSE,5.8,-,N/A,,Overcast,160,2012-12-09 10:53:00
5:27 AM,64.4,64.4,100,29.86,7.0,South,6.9,-,N/A,,Mostly Cloudy,170,2012-12-09 11:27:00
5:53 AM,64.9,64.0,97,29.86,7.0,South,5.8,-,N/A,,Overcast,170,2012-12-09 11:53:00
6:53 AM,64.9,64.0,97,29.88,8.0,SSE,5.8,-,N/A,,Overcast,150,2012-12-09 12:53:00
7:53 AM,66.0,64.9,96,29.88,9.0,South,6.9,-,N/A,,Overcast,170,2012-12-09 13:53:00
8:51 AM,66.2,64.4,94,29.89,10.0,South,10.4,-,N/A,,Overcast,170,2012-12-09 14:51:00
8:53 AM,68.0,64.9,90,29.89,10.0,South,9.2,-,N/A,,Overcast,170,2012-12-09 14:53:00
8:58 AM,68.0,64.4,88,29.90,10.0,South,8.1,-,N/A,,Overcast,170,2012-12-09 14:58:00
9:53 AM,70.0,64.9,84,29.90,10.0,South,11.5,-,N/A,,Overcast,190,2012-12-09 15:53:00
10:31 AM,71.6,64.4,78,29.89,10.0,SSW,11.5,-,N/A,,Overcast,200,2012-12-09 16:31:00
10:39 AM,71.6,64.4,78,29.89,10.0,SSW,13.8,19.6,N/A,,Overcast,200,2012-12-09 16:39:00
10:53 AM,73.0,64.0,73,29.88,10.0,SSW,13.8,21.9,N/A,,Overcast,210,2012-12-09 16:53:00
11:30 AM,73.4,64.4,73,29.87,10.0,SW,15.0,20.7,N/A,,Scattered Clouds,220,2012-12-09 17:30:00
11:53 AM,75.9,63.0,64,29.85,10.0,SSW,16.1,19.6,N/A,,Mostly Cloudy,200,2012-12-09 17:53:00
12:53 PM,75.9,63.0,64,29.82,10.0,SSW,13.8,-,N/A,,Mostly Cloudy,210,2012-12-09 18:53:00
1:53 PM,75.9,62.1,62,29.79,9.0,SW,10.4,-,N/A,,Clear,220,2012-12-09 19:53:00
2:53 PM,75.9,62.1,62,29.79,10.0,SSW,13.8,-,N/A,,Partly Cloudy,200,2012-12-09 20:53:00
4:53 PM,73.0,62.1,68,29.78,10.0,South,8.1,-,N/A,,Clear,170,2012-12-09 22:53:00
5:53 PM,71.1,63.0,75,29.77,10.0,SSE,5.8,-,0.00,Rain,Light Rain,150,2012-12-09 23:53:00
6:40 PM,71.6,62.6,73,29.78,10.0,South,9.2,-,0.00,Thunderstorm,Partly Cloudy,170,2012-12-10 00:40:00
6:53 PM,71.1,63.0,75,29.78,10.0,South,13.8,-,0.00,Thunderstorm,Scattered Clouds,190,2012-12-10 00:53:00
7:40 PM,66.2,64.4,94,29.82,1.8,West,10.4,-,0.15,Rain-Thunderstorm,Heavy Thunderstorms and Rain,260,2012-12-10 01:40:00
7:51 PM,64.4,64.4,100,29.80,3.0,Calm,Calm,-,0.20,Rain-Thunderstorm,Thunderstorms and Rain,0,2012-12-10 01:51:00
7:53 PM,64.9,64.0,97,29.78,3.0,Calm,Calm,-,0.21,Rain-Thunderstorm,Thunderstorms and Rain,0,2012-12-10 01:53:00
8:10 PM,64.4,64.4,100,29.80,8.0,WSW,4.6,-,0.01,Rain,Light Rain,240,2012-12-10 02:10:00
8:34 PM,64.4,64.4,100,29.80,8.0,Calm,Calm,-,0.01,,Mostly Cloudy,0,2012-12-10 02:34:00
8:53 PM,64.9,63.0,93,29.81,8.0,South,3.5,-,0.01,,Mostly Cloudy,190,2012-12-10 02:53:00
9:53 PM,61.0,54.0,78,29.83,10.0,NW,11.5,-,N/A,,Clear,310,2012-12-10 03:53:00
10:53 PM,57.9,53.1,84,29.86,9.0,WNW,8.1,-,N/A,,Overcast,300,2012-12-10 04:53:00
11:53 PM,54.0,51.1,90,29.86,8.0,WNW,11.5,-,0.01,,Overcast,300,2012-12-10 05:53:00